FW3241 Weather Reports


time (UTC)temp
F
wind
direction
speed
knots
gust
knots
rain 1hr
in
rain 24hr
in
rain mn
in
humidity
%
barometer
mb
20260504201558 69 205 0.9 4.3 0.00 0.00 0.00 23 1016.4
20260504200044 69 246 0.9 4.3 0.00 0.00 0.00 25 1016.5
20260504194541 68 242 0.9 3.5 0.00 0.00 0.00 26 1016.7
20260504193037 67 242 1.7 3.5 0.00 0.00 0.00 27 1017.1
20260504191537 68 242 2.6 4.3 0.00 0.00 0.00 25 1017.3
20260504190033 68 244 1.7 4.3 0.00 0.00 0.00 22 1017.4
20260504184535 68 221 1.7 6.1 0.00 0.00 0.00 20 1017.5
20260504183031 68 217 1.7 4.3 0.00 0.00 0.00 18 1017.6
20260504181532 68 217 0.9 4.3 0.00 0.00 0.00 22 1017.6
20260504180024 67 224 0.0 4.3 0.00 0.00 0.00 25 1017.8
20260504174522 66 211 0.0 4.3 0.00 0.00 0.00 29 1018.1
20260504173017 65 230 1.7 3.5 0.00 0.00 0.00 29 1018.4
20260504171513 63 230 0.9 4.3 0.00 0.00 0.00 30 1018.5
20260504160106 59 206 0.0 1.7 0.00 0.00 0.00 29 1019.5
20260504081505 44 165 0.0 0.9 0.00 0.00 0.00 48 1019.8
20260504044547 45 34 0.0 0.9 0.00 0.00 0.00 37 1020.3
20260504043044 45 34 0.0 0.9 0.00 0.00 0.00 38 1020.4
20260504041542 45 34 0.0 0.0 0.00 0.00 0.00 40 1020.1
20260504040044 46 34 0.0 0.0 0.00 0.00 0.00 38 1020.2
20260504034538 46 34 0.0 0.9 0.00 0.00 0.00 41 1020.2
20260504033049 46 34 0.0 0.0 0.00 0.00 0.00 41 1020.0
20260504031537 47 34 0.0 0.9 0.00 0.00 0.00 39 1020.3
20260504030036 46 34 0.0 0.0 0.00 0.00 0.00 40 1020.3
20260504024545 47 34 0.0 0.0 0.00 0.00 0.00 42 1020.3
20260504023036 47 34 0.0 0.0 0.00 0.00 0.00 42 1020.5
20260504021541 48 34 0.0 0.0 0.00 0.00 0.00 39 1020.5
20260504020034 48 34 0.0 0.0 0.00 0.00 0.00 35 1020.4
20260504014535 48 34 0.0 0.0 0.00 0.00 0.00 37 1020.1
20260504013043 48 34 0.0 0.0 0.00 0.00 0.00 43 1020.1
20260504011534 49 34 0.0 0.0 0.00 0.00 0.00 40 1020.0
20260504010033 49 34 0.0 0.0 0.00 0.00 0.00 39 1020.0
20260504004542 50 34 0.0 0.9 0.00 0.00 0.00 39 1019.8
20260504003032 50 34 0.0 1.7 0.00 0.00 0.00 43 1019.8
20260504001531 51 34 0.0 1.7 0.00 0.00 0.00 43 1019.7
20260504000030 52 33 0.9 2.6 0.00 0.00 0.00 41 1019.7
20260503234530 54 241 0.9 1.7 0.00 0.00 0.00 39 1019.6
20260503233032 56 240 0.0 1.7 0.00 0.00 0.00 37 1019.6
20260503231529 57 240 0.0 1.7 0.00 0.00 0.00 34 1019.6
20260503230028 58 240 0.9 2.6 0.00 0.00 0.00 24 1019.7
20260503224528 58 240 0.9 3.5 0.00 0.00 0.00 25 1019.6
20260503223027 59 241 0.9 3.5 0.00 0.00 0.00 25 1019.7
20260503221525 60 245 0.0 4.3 0.00 0.00 0.00 22 1019.8
20260503220025 59 252 1.7 3.5 0.00 0.00 0.00 25 1019.8
20260503214524 60 244 0.9 3.5 0.00 0.00 0.00 25 1019.9
20260503213028 60 252 0.9 2.6 0.00 0.00 0.00 26 1020.0
20260503211534 60 276 0.9 6.1 0.00 0.00 0.00 23 1020.1
20260503210021 60 238 1.7 3.5 0.00 0.00 0.00 23 1020.1
20260503204521 60 244 2.6 7.0 0.00 0.00 0.00 26 1020.3
20260503203022 61 237 2.6 5.2 0.00 0.00 0.00 24 1020.3